• In Belarus
  • List of Countries
  • For 7 days
  • Water Temperature
  • Satellite Maps
  • Weather Map
  • Weather Widgets
  • user-avatar
    Login

    Hourly Weather Dresden

    Today, 25 March, Monday

    Time Temperature Precipitation Wind Pressure Humidity
    00:00 +5°C° 0 mm 2 mps 752 mmHg 91%
    01:00 +4°C° 0 mm 2 mps 751 mmHg 93%
    02:00 +4°C° 0 mm 2 mps 751 mmHg 92%
    03:00 +3°C° 0 mm 2 mps 750 mmHg 90%
    04:00 +2°C° 0 mm 3 mps 750 mmHg 89%
    05:00 +1°C° 0 mm 4 mps 750 mmHg 85%
    06:00 +1°C° 0 mm 4 mps 749 mmHg 82%
    07:00 +1°C° 0 mm 4 mps 749 mmHg 77%
    08:00 +1°C° 0.4 mm 5 mps 748 mmHg 78%
    09:00 +2°C° 0.4 mm 6 mps 748 mmHg 79%
    10:00 +2°C° 0.4 mm 7 mps 748 mmHg 80%
    11:00 +3°C° 0.3 mm 7 mps 748 mmHg 77%
    12:00 +4°C° 0.3 mm 7 mps 748 mmHg 74%
    13:00 +4°C° 0.3 mm 7 mps 748 mmHg 71%
    14:00 +4°C° 0.4 mm 6 mps 748 mmHg 71%
    15:00 +5°C° 0.4 mm 6 mps 749 mmHg 70%
    16:00 +6°C° 0.4 mm 5 mps 749 mmHg 70%
    17:00 +5°C° 0.2 mm 4 mps 749 mmHg 74%
    18:00 +4°C° 0.2 mm 3 mps 750 mmHg 79%
    19:00 +4°C° 0.2 mm 2 mps 750 mmHg 84%
    20:00 +2°C° 0 mm 3 mps 751 mmHg 86%
    21:00 +2°C° 0 mm 3 mps 752 mmHg 88%
    22:00 +1°C° 0 mm 3 mps 753 mmHg 90%
    23:00 +1°C° 0 mm 3 mps 753 mmHg 92%

    Tomorrow, 26 March, Tuesday

    Time Temperature Precipitation Wind Pressure Humidity
    00:00 +1°C° 0 mm 3 mps 754 mmHg 93%
    01:00 0°C° 0 mm 3 mps 755 mmHg 94%
    02:00 0°C° 0 mm 3 mps 755 mmHg 95%
    03:00 0°C° 0 mm 3 mps 755 mmHg 95%
    04:00 0°C° 0 mm 3 mps 756 mmHg 95%
    05:00 +1°C° 0 mm 3 mps 756 mmHg 95%
    06:00 0°C° 0 mm 4 mps 756 mmHg 95%
    07:00 0°C° 0 mm 4 mps 756 mmHg 94%
    08:00 +1°C° 0 mm 5 mps 756 mmHg 90%
    09:00 +2°C° 0 mm 6 mps 757 mmHg 86%
    10:00 +3°C° 0 mm 6 mps 757 mmHg 82%
    11:00 +3°C° 0 mm 7 mps 757 mmHg 80%
    12:00 +4°C° 0 mm 7 mps 757 mmHg 77%
    13:00 +4°C° 0 mm 7 mps 757 mmHg 74%
    14:00 +4°C° 0.1 mm 7 mps 757 mmHg 75%
    15:00 +3°C° 0.1 mm 7 mps 756 mmHg 75%
    16:00 +3°C° 0.1 mm 6 mps 756 mmHg 76%
    17:00 +3°C° 0 mm 6 mps 757 mmHg 77%
    18:00 +3°C° 0 mm 5 mps 757 mmHg 79%
    19:00 +2°C° 0 mm 5 mps 757 mmHg 81%
    20:00 +3°C° 0.1 mm 4 mps 757 mmHg 83%
    21:00 +3°C° 0.1 mm 4 mps 758 mmHg 86%
    22:00 +3°C° 0.1 mm 4 mps 758 mmHg 88%
    23:00 +2°C° 0 mm 3 mps 758 mmHg 90%

    Day after tomorrow, 27 March, Wednesday

    Time Temperature Precipitation Wind Pressure Humidity
    00:00 +2°C° 0 mm 3 mps 758 mmHg 92%
    01:00 +1°C° 0 mm 3 mps 758 mmHg 94%
    02:00 +2°C° 0 mm 3 mps 758 mmHg 95%
    03:00 +2°C° 0 mm 3 mps 758 mmHg 96%
    04:00 +2°C° 0 mm 3 mps 758 mmHg 97%
    05:00 +3°C° 0.1 mm 3 mps 758 mmHg 96%
    06:00 +3°C° 0.1 mm 3 mps 759 mmHg 95%
    07:00 +4°C° 0.1 mm 3 mps 759 mmHg 94%
    08:00 +4°C° 0 mm 4 mps 759 mmHg 89%
    09:00 +5°C° 0 mm 4 mps 759 mmHg 84%
    10:00 +6°C° 0 mm 4 mps 759 mmHg 79%
    11:00 +7°C° 0 mm 5 mps 759 mmHg 76%
    12:00 +7°C° 0 mm 5 mps 759 mmHg 74%
    13:00 +8°C° 0 mm 5 mps 759 mmHg 71%
    14:00 +8°C° 0 mm 5 mps 759 mmHg 73%
    15:00 +8°C° 0 mm 5 mps 759 mmHg 75%
    16:00 +8°C° 0 mm 5 mps 759 mmHg 77%
    17:00 +7°C° 0 mm 4 mps 759 mmHg 81%
    18:00 +6°C° 0 mm 4 mps 759 mmHg 85%
    19:00 +7°C° 0 mm 3 mps 759 mmHg 89%
    20:00 +7°C° 0 mm 3 mps 759 mmHg 91%
    21:00 +7°C° 0 mm 3 mps 760 mmHg 92%
    22:00 +7°C° 0 mm 3 mps 760 mmHg 93%
    23:00 +7°C° 0.1 mm 3 mps 760 mmHg 94%

    28 March, Thursday

    Time Temperature Precipitation Wind Pressure Humidity
    00:00 +7°C° 0.1 mm 3 mps 760 mmHg 95%
    01:00 +7°C° 0.1 mm 3 mps 760 mmHg 95%
    02:00 +7°C° 0.1 mm 3 mps 760 mmHg 96%
    03:00 +7°C° 0.1 mm 3 mps 760 mmHg 96%
    04:00 +7°C° 0.1 mm 3 mps 760 mmHg 96%
    05:00 +7°C° 0.1 mm 3 mps 760 mmHg 95%
    06:00 +7°C° 0.1 mm 3 mps 761 mmHg 94%
    07:00 +7°C° 0.1 mm 3 mps 761 mmHg 94%
    08:00 +7°C° 0.1 mm 3 mps 761 mmHg 88%
    09:00 +7°C° 0.1 mm 3 mps 762 mmHg 83%
    10:00 +7°C° 0.1 mm 4 mps 762 mmHg 78%
    11:00 +8°C° 0 mm 3 mps 762 mmHg 74%
    12:00 +9°C° 0 mm 3 mps 762 mmHg 71%
    13:00 +10°C° 0 mm 3 mps 763 mmHg 68%
    14:00 +10°C° 0 mm 3 mps 762 mmHg 70%
    15:00 +10°C° 0 mm 3 mps 762 mmHg 72%
    16:00 +10°C° 0 mm 3 mps 762 mmHg 74%
    17:00 +9°C° 0 mm 3 mps 763 mmHg 79%
    18:00 +8°C° 0 mm 2 mps 763 mmHg 84%
    19:00 +7°C° 0 mm 2 mps 763 mmHg 89%
    20:00 +7°C° 0 mm 1 mps 763 mmHg 90%
    21:00 +6°C° 0 mm 1 mps 764 mmHg 90%
    22:00 +5°C° 0 mm 0 mps 764 mmHg 90%
    23:00 +4°C° 0 mm 0 mps 764 mmHg 90%

    29 March, Friday

    Time Temperature Precipitation Wind Pressure Humidity
    00:00 +4°C° 0 mm 0 mps 764 mmHg 90%
    01:00 +5°C° 0 mm 1 mps 764 mmHg 90%
    02:00 +4°C° 0 mm 0 mps 764 mmHg 89%
    03:00 +3°C° 0 mm 0 mps 764 mmHg 89%
    04:00 +3°C° 0 mm 0 mps 764 mmHg 89%
    05:00 +4°C° 0 mm 0 mps 764 mmHg 88%
    06:00 +4°C° 0 mm 0 mps 764 mmHg 87%
    07:00 +5°C° 0 mm 0 mps 765 mmHg 86%
    08:00 +7°C° 0 mm 0 mps 765 mmHg 79%
    09:00 +9°C° 0 mm 0 mps 765 mmHg 71%
    10:00 +11°C° 0 mm 0 mps 765 mmHg 64%
    11:00 +12°C° 0 mm 0 mps 764 mmHg 59%
    12:00 +13°C° 0 mm 0 mps 764 mmHg 54%
    13:00 +14°C° 0 mm 0 mps 764 mmHg 49%
    14:00 +15°C° 0 mm 1 mps 763 mmHg 49%
    15:00 +15°C° 0 mm 1 mps 763 mmHg 48%
    16:00 +15°C° 0 mm 1 mps 762 mmHg 47%
    17:00 +13°C° 0 mm 1 mps 762 mmHg 53%
    18:00 +12°C° 0 mm 1 mps 762 mmHg 59%
    19:00 +9°C° 0 mm 0 mps 762 mmHg 65%
    20:00 +10°C° 0 mm 1 mps 762 mmHg 67%
    21:00 +9°C° 0 mm 1 mps 762 mmHg 68%
    22:00 +9°C° 0 mm 1 mps 762 mmHg 70%
    23:00 +8°C° 0 mm 1 mps 761 mmHg 71%

    30 March, Saturday

    Time Temperature Precipitation Wind Pressure Humidity
    00:00 +8°C° 0 mm 1 mps 761 mmHg 71%
    01:00 +8°C° 0 mm 1 mps 761 mmHg 72%
    02:00 +7°C° 0 mm 1 mps 761 mmHg 72%
    03:00 +7°C° 0 mm 1 mps 761 mmHg 73%
    04:00 +7°C° 0 mm 1 mps 760 mmHg 73%
    05:00 +7°C° 0 mm 1 mps 760 mmHg 73%
    06:00 +7°C° 0 mm 1 mps 760 mmHg 72%
    07:00 +8°C° 0 mm 1 mps 760 mmHg 72%
    08:00 +9°C° 0 mm 2 mps 760 mmHg 65%
    09:00 +12°C° 0 mm 2 mps 759 mmHg 59%
    10:00 +14°C° 0 mm 2 mps 759 mmHg 52%
    11:00 +15°C° 0 mm 2 mps 758 mmHg 49%
    12:00 +16°C° 0 mm 2 mps 758 mmHg 46%
    13:00 +18°C° 0 mm 2 mps 757 mmHg 43%
    14:00 +18°C° 0 mm 2 mps 756 mmHg 43%
    15:00 +18°C° 0 mm 2 mps 755 mmHg 43%
    16:00 +18°C° 0 mm 2 mps 755 mmHg 43%
    17:00 +16°C° 0 mm 2 mps 754 mmHg 51%
    18:00 +14°C° 0 mm 1 mps 754 mmHg 59%
    19:00 +12°C° 0 mm 1 mps 754 mmHg 66%
    20:00 +12°C° 0 mm 1 mps 753 mmHg 68%
    21:00 +11°C° 0 mm 1 mps 753 mmHg 71%
    22:00 +10°C° 0 mm 1 mps 753 mmHg 73%
    23:00 +10°C° 0 mm 1 mps 753 mmHg 75%
    Show more